Tracking 29892 objects as of 21-Nov-2024
HD Live streaming from Space Station
objects crossing your sky now

STARLINK-32411

Track STARLINK-32411 now!
10-day predictions
STARLINK-32411 is classified as:


NORAD ID: 61547
Int'l Code: 2024-184R
Perigee: 453.7 km
Apogee: 455.1 km
Inclination: 53.2 °
Period: 93.5 minutes
Semi major axis: 6825 km
RCS: Unknown
Launch date: October 15, 2024
Source: United States (US)
Launch site: AIR FORCE WESTERN TEST RANGE (AFWTR)
Your satellite tracking list
Your tracking list is empty




NASA's NSSDC Master Catalog

Two Line Element Set (TLE):
1 61547U 24184R   24325.91668981  .00018221  00000-0  46448-3 0  9999
2 61547  53.1594  60.0647 0001038  66.7320 266.4503 15.39616144  6115
Source of the keplerian elements: AFSPC